This demonstration page uses our WeatherBlox Daily Observations layout. Learn more.

Left ArrowRight Arrow

Hourly Observations for April 1, 2019

Temp ( °F °C ) Dew Point ( °F °C ) Humidity (%) Winds ( mph kmh ) Pressure ( in mb ) Visibility ( mi km ) Precip ( " mm )
12:52 am 00:52 Clear 41 5 27 -2.8 57 57 S 12 19 30.20 1023 10 16 0.00 0.00
1:52 am 01:52 Clear 40 4.4 26 -3.3 58 58 S 9 15 30.20 1023 10 16 0.00 0.00
2:52 am 02:52 Clear 40 4.4 26 -3.3 58 58 S 12 19 30.19 1022 10 16 0.00 0.00
3:52 am 03:52 Clear 39 3.9 26 -3.3 60 60 S 10 17 30.18 1022 10 16 0.00 0.00
4:52 am 04:52 Partly Cloudy 37 2.8 26 -3.3 65 65 S 10 17 30.17 1022 10 16 0.00 0.00
5:52 am 05:52 Partly Cloudy 38 3.3 25 -3.9 60 60 S 9 15 30.17 1022 10 16 0.00 0.00
6:52 am 06:52 Partly Cloudy 34 1.1 25 -3.9 70 70 SSE 7 11 30.18 1022 10 16 0.00 0.00
7:52 am 07:52 Partly Cloudy 36 2.2 26 -3.3 67 67 ESE 5 7 30.18 1022 10 16 0.00 0.00
8:52 am 08:52 Mostly Cloudy 41 5 27 -2.8 57 57 SSE 6 9 30.18 1022 10 16 0.00 0.00
9:52 am 09:52 Mostly Cloudy 46 7.8 25 -3.9 44 44 WSW 8 13 30.16 1022 10 16 0.00 0.00
10:52 am 10:52 Mostly Cloudy 50 10 26 -3.3 39 39 WSW 7 11 30.15 1021 10 16 0.00 0.00
11:52 am 11:52 Mostly Cloudy 53 11.7 27 -2.8 37 37 SW 9 15 30.13 1020 10 16 0.00 0.00
12:52 pm 12:52 Mostly Cloudy 57 13.9 27 -2.8 32 32 SW 16 26 30.09 1019 10 16 0.00 0.00
1:52 pm 13:52 Mostly Cloudy 61 16.1 26 -3.3 26 26 WSW 13 20 30.05 1018 10 16 0.00 0.00
2:52 pm 14:52 Partly Cloudy 62 16.7 23 -5 22 22 SSW 17 28 30.01 1016 10 16 0.00 0.00
3:52 pm 15:52 Partly Cloudy 63 17.2 21 -6.1 20 20 SW 16 26 29.99 1016 10 16 0.00 0.00
4:52 pm 16:52 Mostly Cloudy 63 17.2 22 -5.6 21 21 S 15 24 29.98 1015 10 16 0.00 0.00
5:52 pm 17:52 Mostly Cloudy 62 16.7 23 -5 22 22 SSW 15 24 29.97 1015 10 16 0.00 0.00
6:52 pm 18:52 Mostly Cloudy 60 15.6 23 -5 24 24 S 13 20 29.97 1015 10 16 0.00 0.00
7:52 pm 19:52 Mostly Cloudy 57 13.9 25 -3.9 29 29 S 10 17 29.97 1015 10 16 0.00 0.00
8:52 pm 20:52 Mostly Cloudy 55 12.8 26 -3.3 33 33 S 8 13 29.97 1015 10 16 0.00 0.00
9:52 pm 21:52 Mostly Cloudy 49 9.4 35 1.7 59 59 N 16 26 30.01 1016 10 16 0.00 0.00
10:52 pm 22:52 Mostly Cloudy 44 6.7 33 0.6 65 65 N 16 26 30.03 1017 10 16 0.00 0.03
11:52 pm 23:52 Mostly Cloudy 43 6.1 32 0 65 65 N 15 24 30.04 1017 10 16 0.00 0.00

Powered by AerisWeather